Hourly Weather Ballycastle

Today, 7 August, Friday

Time Temperature Precipitation Wind Pressure Humidity
00:00 +15°C° 0 mm 5 mps 756 mmHg 95%
01:00 +15°C° 0 mm 5 mps 756 mmHg 95%
02:00 +14°C° 0 mm 5 mps 756 mmHg 95%
03:00 +14°C° 0 mm 5 mps 756 mmHg 95%
04:00 +14°C° 0 mm 5 mps 756 mmHg 94%
05:00 +14°C° 0 mm 5 mps 756 mmHg 94%
06:00 +14°C° 0 mm 5 mps 756 mmHg 93%
07:00 +15°C° 0 mm 6 mps 756 mmHg 92%
08:00 +15°C° 0 mm 6 mps 757 mmHg 91%
09:00 +16°C° 0 mm 6 mps 757 mmHg 89%
10:00 +17°C° 0 mm 5 mps 757 mmHg 87%
11:00 +19°C° 0 mm 5 mps 757 mmHg 85%
12:00 +20°C° 0 mm 5 mps 757 mmHg 82%
13:00 +19°C° 1.4 mm 5 mps 758 mmHg 86%
14:00 +16°C° 1.4 mm 5 mps 758 mmHg 90%
15:00 +14°C° 1.4 mm 5 mps 758 mmHg 94%
16:00 +14°C° 0.2 mm 4 mps 759 mmHg 91%
17:00 +14°C° 0.2 mm 4 mps 759 mmHg 89%
18:00 +14°C° 0.2 mm 3 mps 759 mmHg 86%
19:00 +13°C° 0 mm 3 mps 760 mmHg 88%
20:00 +13°C° 0 mm 2 mps 760 mmHg 90%
21:00 +12°C° 0 mm 2 mps 761 mmHg 92%
22:00 +12°C° 0 mm 2 mps 761 mmHg 92%
23:00 +12°C° 0 mm 2 mps 762 mmHg 92%

Tomorrow, 8 August, Saturday

Time Temperature Precipitation Wind Pressure Humidity
00:00 +12°C° 0 mm 1 mps 762 mmHg 92%
01:00 +12°C° 0 mm 2 mps 762 mmHg 92%
02:00 +10°C° 0 mm 2 mps 763 mmHg 91%
03:00 +10°C° 0 mm 2 mps 763 mmHg 91%
04:00 +10°C° 0 mm 2 mps 763 mmHg 90%
05:00 +12°C° 0 mm 2 mps 763 mmHg 89%
06:00 +12°C° 0 mm 1 mps 764 mmHg 89%
07:00 +13°C° 0 mm 1 mps 764 mmHg 85%
08:00 +15°C° 0 mm 1 mps 764 mmHg 81%
09:00 +16°C° 0 mm 1 mps 764 mmHg 78%
10:00 +18°C° 0 mm 1 mps 764 mmHg 76%
11:00 +18°C° 0 mm 1 mps 765 mmHg 74%
12:00 +19°C° 0 mm 1 mps 765 mmHg 72%
13:00 +19°C° 0 mm 1 mps 765 mmHg 72%
14:00 +18°C° 0 mm 2 mps 764 mmHg 71%
15:00 +18°C° 0 mm 2 mps 764 mmHg 71%
16:00 +18°C° 0 mm 2 mps 764 mmHg 73%
17:00 +18°C° 0 mm 2 mps 764 mmHg 75%
18:00 +17°C° 0 mm 2 mps 764 mmHg 77%
19:00 +16°C° 0 mm 2 mps 764 mmHg 79%
20:00 +15°C° 0 mm 2 mps 764 mmHg 81%
21:00 +14°C° 0 mm 2 mps 764 mmHg 83%
22:00 +13°C° 0 mm 2 mps 764 mmHg 85%
23:00 +13°C° 0 mm 2 mps 764 mmHg 86%

Day after tomorrow, 9 August, Sunday

Time Temperature Precipitation Wind Pressure Humidity
00:00 +13°C° 0 mm 2 mps 764 mmHg 87%
01:00 +13°C° 0 mm 2 mps 764 mmHg 88%
02:00 +13°C° 0 mm 2 mps 764 mmHg 88%
03:00 +13°C° 0 mm 2 mps 763 mmHg 89%
04:00 +12°C° 0 mm 3 mps 763 mmHg 89%
05:00 +12°C° 0 mm 3 mps 763 mmHg 89%
06:00 +12°C° 0 mm 3 mps 763 mmHg 89%
07:00 +13°C° 0 mm 3 mps 763 mmHg 87%
08:00 +13°C° 0 mm 3 mps 763 mmHg 85%
09:00 +14°C° 0 mm 3 mps 763 mmHg 83%
10:00 +14°C° 0 mm 3 mps 763 mmHg 83%
11:00 +16°C° 0 mm 3 mps 762 mmHg 83%
12:00 +16°C° 0 mm 3 mps 762 mmHg 83%
13:00 +16°C° 0 mm 2 mps 762 mmHg 84%
14:00 +16°C° 0 mm 2 mps 762 mmHg 86%
15:00 +16°C° 0 mm 2 mps 762 mmHg 87%
16:00 +16°C° 0 mm 2 mps 762 mmHg 87%
17:00 +16°C° 0 mm 2 mps 761 mmHg 87%
18:00 +16°C° 0 mm 2 mps 761 mmHg 87%
19:00 +16°C° 0 mm 2 mps 761 mmHg 88%
20:00 +16°C° 0 mm 3 mps 761 mmHg 90%
21:00 +14°C° 0 mm 3 mps 761 mmHg 91%
22:00 +14°C° 0 mm 3 mps 761 mmHg 91%
23:00 +14°C° 0 mm 3 mps 761 mmHg 91%

10 August, Monday

Time Temperature Precipitation Wind Pressure Humidity
00:00 +14°C° 0 mm 3 mps 760 mmHg 91%
01:00 +14°C° 0.1 mm 3 mps 760 mmHg 92%
02:00 +13°C° 0.1 mm 3 mps 760 mmHg 93%
03:00 +14°C° 0.1 mm 2 mps 760 mmHg 94%
04:00 +14°C° 0 mm 2 mps 759 mmHg 94%
05:00 +14°C° 0 mm 2 mps 759 mmHg 94%
06:00 +13°C° 0 mm 3 mps 759 mmHg 94%
07:00 +14°C° 0 mm 2 mps 759 mmHg 93%
08:00 +15°C° 0 mm 2 mps 759 mmHg 92%
09:00 +15°C° 0 mm 2 mps 759 mmHg 91%
10:00 +15°C° 0 mm 2 mps 759 mmHg 90%
11:00 +15°C° 0 mm 2 mps 759 mmHg 90%
12:00 +15°C° 0 mm 2 mps 760 mmHg 89%
13:00 +16°C° 0 mm 2 mps 759 mmHg 89%
14:00 +16°C° 0 mm 2 mps 759 mmHg 89%
15:00 +16°C° 0 mm 2 mps 759 mmHg 88%
16:00 +16°C° 0 mm 3 mps 759 mmHg 88%
17:00 +16°C° 0 mm 3 mps 759 mmHg 89%
18:00 +15°C° 0 mm 4 mps 759 mmHg 89%
19:00 +14°C° 0 mm 3 mps 759 mmHg 91%
20:00 +14°C° 0 mm 3 mps 760 mmHg 93%
21:00 +13°C° 0 mm 3 mps 760 mmHg 95%
22:00 +13°C° 0 mm 3 mps 760 mmHg 95%
23:00 +13°C° 0 mm 3 mps 760 mmHg 94%

11 August, Tuesday

Time Temperature Precipitation Wind Pressure Humidity
00:00 +13°C° 0 mm 3 mps 760 mmHg 94%
01:00 +13°C° 0 mm 3 mps 760 mmHg 94%
02:00 +13°C° 0 mm 3 mps 759 mmHg 95%
03:00 +13°C° 0 mm 3 mps 759 mmHg 95%
04:00 +13°C° 0 mm 3 mps 759 mmHg 95%
05:00 +13°C° 0 mm 4 mps 759 mmHg 95%
06:00 +14°C° 0 mm 4 mps 759 mmHg 94%
07:00 +14°C° 0 mm 4 mps 759 mmHg 92%
08:00 +15°C° 0 mm 4 mps 759 mmHg 90%
09:00 +15°C° 0 mm 4 mps 760 mmHg 88%
10:00 +17°C° 0 mm 4 mps 760 mmHg 86%
11:00 +16°C° 0 mm 5 mps 760 mmHg 84%
12:00 +17°C° 0 mm 5 mps 760 mmHg 83%
13:00 +17°C° 0 mm 5 mps 760 mmHg 82%
14:00 +17°C° 0 mm 5 mps 760 mmHg 81%
15:00 +17°C° 0 mm 5 mps 760 mmHg 80%
16:00 +16°C° 0 mm 5 mps 760 mmHg 81%
17:00 +16°C° 0 mm 5 mps 760 mmHg 82%
18:00 +15°C° 0 mm 5 mps 760 mmHg 83%
19:00 +14°C° 0 mm 5 mps 760 mmHg 86%
20:00 +13°C° 0 mm 5 mps 760 mmHg 90%
21:00 +12°C° 0 mm 5 mps 760 mmHg 93%
22:00 +12°C° 0 mm 4 mps 760 mmHg 94%
23:00 +12°C° 0 mm 4 mps 760 mmHg 94%

12 August, Wednesday

Time Temperature Precipitation Wind Pressure Humidity
00:00 +12°C° 0 mm 4 mps 760 mmHg 94%
01:00 +12°C° 0 mm 4 mps 760 mmHg 95%
02:00 +12°C° 0 mm 4 mps 760 mmHg 95%
03:00 +12°C° 0 mm 4 mps 760 mmHg 96%
04:00 +12°C° 0 mm 4 mps 760 mmHg 96%
05:00 +12°C° 0 mm 4 mps 760 mmHg 96%
06:00 +12°C° 0 mm 4 mps 760 mmHg 96%
07:00 +13°C° 0 mm 4 mps 760 mmHg 93%
08:00 +14°C° 0 mm 4 mps 760 mmHg 90%
09:00 +15°C° 0 mm 4 mps 760 mmHg 87%
10:00 +15°C° 0 mm 4 mps 760 mmHg 86%
11:00 +16°C° 0 mm 5 mps 760 mmHg 84%
12:00 +16°C° 0 mm 5 mps 760 mmHg 82%
13:00 +16°C° 0 mm 5 mps 760 mmHg 82%
14:00 +16°C° 0 mm 5 mps 760 mmHg 83%
15:00 +16°C° 0 mm 5 mps 760 mmHg 83%
16:00 +16°C° 0 mm 5 mps 760 mmHg 85%
17:00 +16°C° 0 mm 5 mps 760 mmHg 86%
18:00 +15°C° 0 mm 5 mps 760 mmHg 87%
19:00 +14°C° 0 mm 5 mps 760 mmHg 90%
20:00 +14°C° 0 mm 5 mps 760 mmHg 92%
21:00 +13°C° 0 mm 5 mps 761 mmHg 95%
22:00 +13°C° 0 mm 4 mps 761 mmHg 95%
23:00 +12°C° 0 mm 4 mps 761 mmHg 96%
Show more